Weather History for Longview, TX

Change the Weather History Date:

Friday, June 28, 2013

  Actual Average Record
Temperature  
Mean Temperature 92 °F 82 °F  
Max Temperature 105 °F 92 °F 105 °F (1918)
Min Temperature 78 °F 72 °F 57 °F (1968)
Degree Days  
Heating Degree Days 0 0  
Month to date heating degree days 0 0  
Since 1 June heating degree days 0 0  
Since 1 July heating degree days 2062 2258  
Cooling Degree Days 27 17  
Month to date cooling degree days 481 406  
Year to date cooling degree days 869 785  
Since 1 June cooling degree days 481 406  
Growing Degree Days 42 (Base 50)    
Moisture  
Dew Point 67 °F    
Average Humidity 49    
Maximum Humidity 74    
Minimum Humidity 24    
Precipitation  
Precipitation 0.00 in 0.15 in 1.90 in (1975)
Month to date precipitation 0.95 4.70  
Year to date precipitation 18.15 24.43  
Snow  
Snow 0.00 in - - ()
Month to date snowfall 0.0  
Since 1 June snowfall 0.0  
Since 1 July snowfall 0.8  
Snow Depth 0.00 in    
Sea Level Pressure  
Sea Level Pressure 29.84 in    
Wind  
Wind Speed 8 mph (West)    
Max Wind Speed 16 mph    
Max Gust Speed 22 mph    
Visibility 10 miles    
Events      
T = Trace of Precipitation, MM = Missing Value Source: NWS Daily Summary

Daily Weather History Graph

Daily Weather History Graph

Search for Another Location

Airport:

Trip Planner

Search our weather history database for the weather conditions in past years. The results will help you decide how hot, cold, wet, or windy it might be!

Date:

Astronomy

Jun. 28, 2013 Rise Set
Actual Time 6:14 AM CDT 8:29 PM CDT
Civil Twilight 5:46 AM CDT 8:58 PM CDT
Nautical Twilight 5:11 AM CDT 9:33 PM CDT
Astronomical Twilight 4:33 AM CDT 10:10 PM CDT
Moon No Moon Rise 12:01 PM CDT (6/28)
Length of Visible Light 15h 12m
Length of Day
14h 15m
Waning Gibbous, 66% of the Moon is Illuminated
Jun 28
Waning Gibbous
Jun 29
Last Quarter
Jul 8
New
Jul 15
First Quarter
Jul 22
Full

Hourly Weather History & Observations

Time (CDT) Temp. Heat Index Dew Point Humidity Pressure Visibility Wind Dir Wind Speed Gust Speed Precip Events Conditions
12:53 AM 80.1 °F 82.7 °F 68.0 °F 67% 29.92 in 10.0 mi South 4.6 mph - N/A   Clear
1:53 AM 82.0 °F 84.9 °F 68.0 °F 62% 29.90 in 10.0 mi SSW 10.4 mph - N/A   Clear
2:53 AM 81.0 °F 84.1 °F 69.1 °F 67% 29.88 in 10.0 mi SSW 11.5 mph - N/A   Clear
3:53 AM 79.0 °F - 69.1 °F 72% 29.90 in 10.0 mi SW 5.8 mph - N/A   Clear
4:53 AM 79.0 °F - 69.1 °F 72% 29.89 in 10.0 mi SW 8.1 mph - N/A   Clear
5:53 AM 79.0 °F - 68.0 °F 69% 29.90 in 7.0 mi SW 6.9 mph - N/A   Clear
6:53 AM 79.0 °F - 66.0 °F 64% 29.90 in 10.0 mi SW 8.1 mph - N/A   Clear
7:53 AM 80.1 °F 82.3 °F 66.9 °F 64% 29.91 in 10.0 mi WSW 5.8 mph - N/A   Clear
8:53 AM 82.9 °F 85.4 °F 66.9 °F 58% 29.93 in 10.0 mi West 6.9 mph - N/A   Clear
9:53 AM 88.0 °F 91.4 °F 68.0 °F 51% 29.92 in 10.0 mi West 11.5 mph - N/A   Clear
10:53 AM 89.1 °F 93.7 °F 69.1 °F 52% 29.91 in 10.0 mi WSW 9.2 mph - N/A   Clear
11:53 AM 93.0 °F 97.9 °F 69.1 °F 45% 29.89 in 10.0 mi WSW 12.7 mph - N/A   Clear
12:53 PM 96.1 °F 102.9 °F 70.0 °F 43% 29.86 in 10.0 mi WSW 8.1 mph - N/A   Clear
1:53 PM 99.0 °F 103.5 °F 66.9 °F 35% 29.83 in 10.0 mi WSW 8.1 mph - N/A   Clear
2:53 PM 100.9 °F 104.6 °F 64.9 °F 31% 29.80 in 10.0 mi WNW 8.1 mph - N/A   Clear
3:53 PM 104.0 °F 106.6 °F 63.0 °F 26% 29.78 in 10.0 mi NW 12.7 mph 21.9 mph N/A   Clear
4:53 PM 104.0 °F 105.3 °F 61.0 °F 24% 29.76 in 10.0 mi NW 13.8 mph 18.4 mph N/A   Clear
5:53 PM 102.9 °F 105.5 °F 63.0 °F 27% 29.75 in 10.0 mi NW 8.1 mph - N/A   Partly Cloudy
6:53 PM 100.0 °F 104.2 °F 66.0 °F 33% 29.75 in 10.0 mi NNW 6.9 mph - N/A   Clear
7:53 PM 96.1 °F 99.9 °F 66.9 °F 38% 29.76 in 10.0 mi NNW 4.6 mph - N/A   Clear
8:53 PM 91.0 °F 95.6 °F 69.1 °F 48% 29.76 in 10.0 mi North 6.9 mph - N/A   Clear
9:53 PM 90.0 °F 93.6 °F 68.0 °F 48% 29.77 in 10.0 mi North 3.5 mph - N/A   Clear
10:53 PM 89.1 °F 91.3 °F 66.0 °F 46% 29.79 in 10.0 mi North 4.6 mph - N/A   Clear
11:53 PM 82.9 °F 85.4 °F 66.9 °F 58% 29.79 in 10.0 mi North 3.5 mph - N/A   Clear